Location: Courteville
(50.5300°N, 1.6917°E)
Time: 13:52:36
(UTC+00:00)

Daily predictions for brighter satellites

Satellite Brightness Start Highest point End
(mag) Time Altitude Azimuth Time Altitude Azimuth Time Altitude Azimuth
Cosmos 921 Rocket 3.7 17:49:32 10° S 17:53:41 37° ESE 17:57:53 10° NE
STARLINK-1023 3.7 17:52:33 10° SW 17:55:30 38° SSE 17:58:29 10° ENE
Cosmos 292 Rocket 4.0 17:51:51 10° SSW 17:56:39 76° WNW 18:01:28 10° NNE
STARLINK-58 3.4 17:53:22 10° SW 17:56:53 62° SSE 18:00:24 10° ENE
STARLINK-62 3.3 17:55:02 10° SW 17:58:33 64° SSE 18:02:05 10° ENE
COSMOS 2487 4.1 17:56:18 10° N 17:58:40 17° NE 18:01:02 10° E
Envisat 3.9 17:54:17 10° S 17:59:16 55° W 18:04:17 10° NNW
ADEOS Rocket 4.0 17:52:36 10° NNE 17:59:47 39° E 18:06:53 10° SSE
CZ-4 R/B 4.4 17:55:47 10° SSE 17:59:55 80° ENE 18:04:04 10° NNW
STARLINK-34 3.3 17:56:40 10° SW 18:00:11 66° SSE 18:03:43 10° ENE
STARLINK-81 3.8 17:56:25 10° SW 18:00:20 55° SSE 18:04:17 10° ENE
Orbus 7S? 4.4 17:50:57 10° SW 18:00:22 67° SE 18:04:20 10° ENE
STARLINK-54 3.7 17:58:13 10° SW 18:02:11 59° SSE 18:06:09 10° ENE
Cosmos 1777 Rocket 4.0 17:57:48 10° NNW 18:03:08 81° ENE 18:08:25 10° SSE
STARLINK-77 3.8 17:59:43 10° SW 18:03:39 57° SSE 18:07:37 10° ENE
Cosmos 1725 Rocket 4.0 17:57:39 10° S 18:03:46 69° E 18:09:58 10° NNE
SJ 16-02 2.9 18:01:45 10° N 18:04:50 18° NE 18:07:54 10° E
STARLINK-25 3.8 18:01:21 10° SW 18:05:18 59° SSE 18:09:17 10° ENE
Cosmos 1633 3.1 18:02:32 10° SSW 18:06:06 63° WNW 18:09:43 10° N
STARLINK-33 3.0 18:03:51 10° WSW 18:07:08 90° WSW 18:10:20 11° ENE
STARLINK-71 3.7 18:03:11 10° SW 18:07:10 64° SSE 18:11:06 10° ENE
STARLINK-79 3.7 18:04:37 10° SW 18:08:35 61° SSE 18:12:27 11° ENE
STARLINK-66 3.0 18:05:52 10° WSW 18:09:09 87° NNW 18:12:16 11° ENE
STARLINK-55 3.0 18:06:05 10° WSW 18:09:22 86° NNW 18:12:28 11° ENE
STARLINK-78 3.7 18:06:18 10° SW 18:10:17 63° SSE 18:14:05 11° ENE
Aureole 2 Rocket 2.5 18:08:34 10° S 18:10:58 31° ESE 18:13:25 10° NE
STARLINK-28 3.0 18:07:45 10° WSW 18:11:01 82° NNW 18:14:03 12° ENE
STARLINK-1007 3.3 18:08:01 10° SW 18:11:08 50° SSE 18:13:56 12° ENE
Cosmos 2061 Rocket 4.2 18:04:44 10° S 18:11:10 86° W 18:17:35 10° N
STARLINK-57 3.6 18:08:02 10° SW 18:12:01 66° SSE 18:15:46 12° ENE
Cosmos 2297 4.1 18:06:54 10° SW 18:12:32 67° WNW 18:18:11 10° NNE
HJ-1C 4.2 18:10:17 10° SE 18:13:10 28° ENE 18:16:05 10° N
STARLINK-49 3.6 18:09:33 10° SW 18:13:33 65° SSE 18:17:13 12° ENE
STARLINK-27 3.6 18:11:13 10° SW 18:15:12 66° SSE 18:18:49 12° ENE
Cosmos 1812 2.7 18:11:58 10° N 18:15:52 85° E 18:19:44 10° S
STARLINK-74 3.6 18:12:52 10° SW 18:16:52 68° SSE 18:20:25 13° ENE
STARLINK-39 3.6 18:14:31 10° WSW 18:18:31 69° SSE 18:22:00 13° ENE
SJ-6B 4.3 18:16:54 12° E 18:18:39 16° ENE 18:21:02 10° NNE
YAOGAN 1 2.5 18:14:50 10° SSE 18:19:10 87° ENE 18:23:32 10° NNW
Cosmos 2369 Rocket 2.4 18:13:56 10° S 18:19:23 51° ESE 18:24:55 10° NE
STARLINK-42 3.0 18:16:41 10° WSW 18:19:56 84° NNW 18:22:35 15° ENE
STARLINK-31 3.6 18:16:11 10° WSW 18:20:11 71° SSE 18:23:37 14° ENE
Cosmos 2285 Rocket 4.0 18:14:45 10° NNW 18:21:07 67° ENE 18:27:29 10° SE
STARLINK-69 3.5 18:17:58 10° WSW 18:21:59 75° SSE 18:25:22 14° ENE
SL-27 R/B 3.1 18:18:55 10° NNW 18:22:13 55° WSW 18:25:27 10° S
STARLINK-21 3.5 18:19:29 10° WSW 18:23:29 74° SSE 18:26:48 15° ENE
Tsikada Rocket 4.2 18:17:10 10° NNW 18:23:34 81° W 18:29:59 10° S
Cosmos 1633 Rocket 2.9 18:19:37 10° S 18:23:56 74° E 18:28:17 10° NNE
STARLINK-1010 3.1 18:21:22 10° SW 18:24:33 61° SSE 18:26:52 17° ENE
USA 234 3.8 18:19:11 11° ENE 18:25:20 51° N 18:31:36 10° WNW
STARLINK-45 3.5 18:21:19 10° WSW 18:25:21 79° SSE 18:28:36 15° ENE
CZ-2D R/B 3.2 18:21:32 10° SSE 18:25:26 83° ENE 18:29:20 10° NNW
SKYMED 2 3.8 18:21:13 10° N 18:25:35 76° WNW 18:29:54 10° SSW
STARLINK-70 3.5 18:22:53 10° WSW 18:26:55 79° SSE 18:30:06 16° ENE
Cosmos 1862 3.7 18:23:11 10° SSW 18:27:09 67° WNW 18:31:07 10° N
Cosmos 1833 4.2 18:21:41 10° NNW 18:27:28 66° ENE 18:33:10 10° SE
STARLINK-76 3.5 18:24:26 10° WSW 18:28:27 78° SSE 18:31:34 16° ENE
STARLINK-23 3.5 18:26:05 10° WSW 18:30:07 79° SSE 18:33:10 17° ENE
Cosmos 1666 Rocket 3.7 18:26:11 10° SSW 18:30:40 81° WNW 18:35:10 10° N
STARLINK-29 3.7 18:27:29 10° WNW 18:30:50 54° SSW 18:33:51 12° SE
NOSS 2-3 (D) 4.3 18:27:08 10° S 18:31:08 37° ESE 18:35:30 11° NE
Cosmos 1933 Rocket 4.0 18:27:16 10° SSE 18:31:20 37° E 18:35:23 10° NNE
STARLINK-32 3.5 18:27:45 10° WSW 18:31:47 80° SSE 18:34:46 17° ENE
USA 229 DEB 3.6 18:26:27 10° SW 18:33:02 83° SE 18:40:00 10° NE
USA 229 3.6 18:26:34 10° SW 18:33:08 82° SE 18:40:06 10° NE
STARLINK-40 3.5 18:29:23 10° WSW 18:33:24 81° SSE 18:36:20 18° ENE
Cosmos 44 3.4 18:30:01 10° NW 18:34:22 69° SW 18:38:52 10° SSE
STARLINK-44 3.5 18:31:03 10° WSW 18:35:04 83° SSE 18:37:56 19° ENE
STARLINK-37 3.5 18:32:48 10° WSW 18:36:51 86° SSE 18:39:39 19° ENE
STARLINK-64 3.3 18:33:24 10° WSW 18:37:01 80° NNW 18:39:23 20° ENE
STARLINK-1029 3.0 18:34:21 10° SW 18:37:28 59° SSE 18:39:10 24° E
STARLINK-36 3.5 18:34:21 10° WSW 18:38:23 85° SSE 18:41:07 20° ENE
STARLINK-75 3.2 18:35:06 10° W 18:38:31 72° NNW 18:40:37 21° ENE
STARLINK-1016 2.9 18:35:19 10° WSW 18:38:34 74° SSE 18:40:24 23° ENE
STARLINK-1008 3.0 18:35:17 10° WSW 18:38:34 74° SSE 18:40:28 23° ENE
Cosmos 1346 Rocket 3.0 18:36:16 10° S 18:40:04 45° E 18:43:52 10° NNE
NOSS 3-1 (A) 3.4 18:34:41 10° SSW 18:40:11 63° SE 18:46:36 10° NE
STARLINK-68 3.5 18:36:11 10° WSW 18:40:13 90° SW 18:42:54 20° ENE
STARLINK-22 3.1 18:37:35 10° WSW 18:40:57 77° NNW 18:42:56 23° ENE
STARLINK-1033 4.3 18:37:13 10° SSW 18:41:03 37° SE 18:43:07 22° E
SJ-11-01 4.4 18:36:52 10° SE 18:41:24 53° ENE 18:45:58 10° N
STARLINK-1025 2.9 18:38:22 10° WSW 18:41:38 77° SSE 18:43:22 25° ENE
STARLINK-1035 4.2 18:37:42 10° SW 18:41:43 42° SE 18:44:01 22° E
STARLINK-63 3.5 18:37:44 10° WSW 18:41:47 89° ESE 18:44:23 21° ENE
FALCON 9 DEB 4.2 18:38:52 10° WNW 18:42:08 40° SSW 18:45:00 13° SE
USA 116 3.8 18:38:28 10° NNE 18:42:23 89° ENE 18:46:49 10° SSW
STARLINK-41 3.1 18:39:03 10° WSW 18:42:25 74° NNW 18:44:20 24° ENE
Ariane Rocket 3.0 18:37:44 10° SSE 18:42:44 59° ENE 18:47:46 10° N
STARLINK-52 3.8 18:39:41 10° WNW 18:42:59 49° SSW 18:45:26 16° SE
STARLINK-61 3.6 18:39:13 10° W 18:43:08 72° NNW 18:45:35 22° ENE
STARLINK-1017 2.9 18:39:53 10° WSW 18:43:10 78° SSE 18:44:51 26° ENE
STARLINK-35 3.5 18:39:18 10° WSW 18:43:19 89° SSE 18:45:52 22° ENE
STARLINK-48 3.8 18:40:18 10° W 18:44:10 59° N 18:46:26 23° ENE
Cosmos 2263 4.3 18:38:55 10° S 18:44:34 58° ESE 18:50:13 10° NE
STARLINK-51 3.5 18:40:58 10° WSW 18:45:00 90° NNW 18:47:29 23° ENE
STARLINK-26 3.5 18:41:39 10° W 18:45:05 55° N 18:46:54 24° ENE
ARGOS 3.6 18:40:14 10° SE 18:45:16 41° ENE 18:50:20 10° N
STARLINK-30 3.5 18:42:37 10° WSW 18:46:40 89° N 18:49:04 23° ENE
CSL-04 Rocket 4.2 18:41:20 10° S 18:46:50 66° WSW 18:52:18 10° NNW
STARLINK-1048 2.9 18:44:32 10° WSW 18:47:49 83° SSE 18:49:20 29° ENE
STARLINK 1040 2.5 18:45:01 10° WSW 18:47:49 86° NNW 18:48:51 35° ENE
STARLINK-72 3.5 18:44:16 10° WSW 18:48:18 87° NNW 18:50:39 24° ENE
CENTAUR R/B 4.0 18:42:03 10° NW 18:48:34 33° NNE 18:54:06 16° ENE
STARLINK-1049 2.9 18:46:05 10° WSW 18:49:23 84° SSE 18:50:50 30° ENE
STARLINK-50 3.5 18:45:55 10° WSW 18:49:57 86° NNW 18:52:14 25° ENE
STARLINK-1024 4.1 18:47:01 10° SW 18:50:56 42° SSE 18:52:41 27° E
STARLINK-1028 2.9 18:47:41 10° WSW 18:50:59 86° SSE 18:52:23 32° ENE
STARLINK-1051 2.9 18:47:42 10° WSW 18:51:00 86° SSE 18:52:24 32° ENE
STARLINK-59 3.5 18:47:40 10° WSW 18:51:43 84° NNW 18:53:56 26° ENE
STARLINK-1027 4.0 18:48:11 10° SW 18:52:18 50° SSE 18:54:17 27° E
Cosmos 2233 Rocket 4.1 18:46:24 10° S 18:52:34 83° W 18:58:49 10° N
STARLINK-1021 2.9 18:49:19 10° WSW 18:52:37 88° SSE 18:53:58 33° ENE
STARLINK-56 3.5 18:49:13 10° WSW 18:53:15 84° NNW 18:55:24 27° ENE
STARLINK-1014 3.0 18:50:09 10° WSW 18:53:36 78° SSE 18:55:03 32° ENE
STARLINK-1019 2.9 18:50:57 10° WSW 18:54:15 89° SSE 18:55:32 34° ENE
Cosmos 990 Rocket 4.2 18:49:51 10° NNW 18:54:52 50° ENE 18:58:20 19° SE
STARLINK-73 3.5 18:50:53 10° WSW 18:54:55 83° NNW 18:57:00 28° ENE
STARLINK-1012 2.9 18:52:37 10° WSW 18:55:55 89° NNE 18:57:09 36° ENE
H-2A R/B 2.2 18:50:53 10° SE 18:56:07 55° ENE 19:01:27 10° N
STARLINK-38 3.5 18:52:34 10° WSW 18:56:37 82° NNW 18:58:37 28° ENE
DMSP B5D1-3 4.5 18:52:26 10° NNE 18:57:37 87° ESE 19:02:46 10° SSW
STARLINK-65 3.5 18:54:12 10° WSW 18:58:14 81° NNW 19:00:12 29° ENE
Meteor 1-18 Rocket 4.4 18:53:02 10° N 18:58:53 58° ENE 19:04:39 10° SSE
ARGOS Delta rocket 4.2 18:57:38 27° ESE 18:59:09 34° ENE 19:03:12 10° N
STARLINK-1026 2.9 18:55:54 10° WSW 18:59:13 87° NNW 19:00:19 39° ENE
ATLAS 3B R/B 4.0 18:53:47 10° NW 18:59:19 27° N 19:03:34 15° NE
STARLINK-53 3.5 18:55:57 10° WSW 18:59:59 79° NNW 19:01:52 30° ENE
Lacrosse 5 3.9 18:58:01 10° SSE 18:58:29 11° SE 18:58:29 11° SE
Cosmos 2297 Rocket 3.5 18:56:13 10° NNW 19:00:41 23° NE 19:02:16 20° ENE
STARLINK-1032 3.9 18:56:53 10° SW 19:00:52 48° SSE 19:02:15 33° E
STARLINK-1013 2.9 18:57:35 10° WSW 19:00:54 85° NNW 19:01:57 41° ENE
MOS 1 4.2 18:56:13 10° SSE 19:01:49 65° ENE 19:07:26 10° N
STARLINK-1009 2.9 18:59:15 10° WSW 19:02:33 84° NNW 19:03:33 43° ENE
Cosmos 1937 Rocket 3.8 18:57:47 10° NNW 19:02:52 44° ENE 19:05:16 27° ESE
Meteor 1-20 Rocket 4.2 18:58:13 10° S 19:03:33 57° E 19:09:00 10° NNE
STARLINK-43 3.3 18:59:58 10° WNW 19:03:41 74° NNE 19:04:52 41° E
STARLINK-1015 3.0 19:00:57 10° WSW 19:04:16 83° NNW 19:05:11 45° ENE
NOSS 2-3 (C) 3.7 19:00:47 10° SSW 19:05:09 70° SE 19:09:00 18° NE
STARLINK-1011 3.8 19:01:48 10° SW 19:05:49 52° SSE 19:07:01 37° E
Okean 1 3.4 19:02:30 10° N 19:06:28 53° ENE 19:08:21 27° SE
Lacrosse 5 rocket 2.6 19:03:06 10° WNW 19:07:20 37° N 19:09:19 25° NE
Lacrosse 4 Rocket 3.6 19:04:42 10° W 19:08:09 23° NW 19:11:42 10° NNE
Cosmos 2242 Rocket 3.9 19:06:14 10° NNW 19:10:45 70° W 19:15:17 10° S
STARLINK-1036 3.8 19:06:44 10° SW 19:10:47 55° SSE 19:11:50 42° E
Cosmos 1470 Rocket 3.9 19:06:36 10° SSW 19:10:56 68° W 19:15:21 10° N
Cosmos 1072 Rocket 4.5 19:05:44 10° S 19:12:01 65° E 19:18:16 10° NNE
SL-24 DEB 4.5 19:10:49 24° SE 19:13:13 46° ENE 19:17:41 10° N
Resurs 01 Rocket 2.8 19:15:30 25° NE 19:15:30 25° NE 19:18:31 10° N
SL-08 RB Rocket 3.9 19:14:23 36° ESE 19:15:38 47° ENE 19:19:57 10° N
STARLINK-1044 3.7 19:11:40 10° SW 19:15:44 58° SSE 19:16:35 47° ESE
Meteor 1-14 Rocket 4.3 19:10:39 10° SSE 19:15:56 48° E 19:21:16 10° NNE
Cosmos 1943 Rocket 2.9 19:11:46 10° SW 19:17:13 54° NW 19:22:41 10° NNE
Gbstr 26 Del rocket 4.1 19:15:04 10° SSW 19:18:23 29° SSE 19:18:23 29° SSE
Cosmos 2227 Rocket 3.3 19:14:33 10° NNW 19:19:16 26° NE 19:20:08 25° NE
STARLINK-80 3.5 19:15:35 10° WNW 19:19:24 63° N 19:20:03 52° ENE
CZ-4 R/B 4.4 19:18:08 10° SW 19:21:09 19° W 19:24:10 10° NW
Genesis I 4.3 19:18:24 10° NNW 19:21:45 30° NNE 19:21:45 30° NNE
STARLINK-1031 3.5 19:17:56 10° SW 19:21:57 68° SSE 19:22:33 57° ESE
USA 238 DEB 4.2 19:16:32 10° NW 19:23:20 46° NNE 19:26:20 31° E
USA 238 4.2 19:16:38 10° NW 19:23:26 46° NNE 19:26:24 31° E
Cosmos 1340 3.7 19:20:20 10° SSW 19:23:57 46° WNW 19:27:38 10° N
Cosmos 1513 Rocket 4.3 19:18:17 10° S 19:24:20 72° E 19:30:30 10° NNE
CZ-2C R/B 3.2 19:19:45 10° SSE 19:25:33 78° ENE 19:31:16 10° NNW
STARLINK-1037 3.5 19:21:30 10° SW 19:25:36 66° SSE 19:26:05 59° ESE
Cosmos 405 3.1 19:24:44 10° NNW 19:28:17 74° W 19:29:30 38° S
STARLINK-24 3.7 19:26:08 10° W 19:30:09 66° N 19:30:47 55° NE
STARLINK-1059 3.5 19:26:33 10° WSW 19:30:39 69° SSE 19:30:57 66° ESE
STARLINK-1023 3.4 19:28:15 10° W 19:31:06 59° NW 19:31:06 59° NW
Cosmos 1703 Rocket 3.9 19:27:34 10° NNW 19:32:00 66° W 19:36:26 10° S
FREGAT/IRIS 3.7 19:33:05 38° NW 19:33:05 38° NW 19:35:04 10° NNW
Okean 1-7 3.1 19:28:25 10° NNW 19:32:44 74° W 19:36:19 15° S
NOSS 3-1 (C) 4.1 19:27:46 10° WSW 19:33:23 53° NW 19:39:31 12° NE
COSMOS 2487 3.4 19:30:40 10° NNW 19:34:01 46° WSW 19:35:18 30° SSW
STARLINK-58 3.5 19:30:47 10° W 19:34:18 58° N 19:34:18 58° N
Cosmos 1891 Rocket 4.4 19:28:35 10° S 19:34:47 86° E 19:41:09 10° N
STARLINK-1057 3.5 19:31:30 10° WSW 19:35:38 73° SSE 19:35:45 72° SE
STARLINK-62 3.6 19:32:29 10° W 19:35:55 57° NNW 19:35:55 57° NNW
Meteor 1-19 Rocket 4.2 19:30:20 10° NNW 19:36:14 86° ENE 19:40:38 18° SSE
STARLINK-34 3.6 19:34:07 10° W 19:37:29 57° NNW 19:37:29 57° NNW
SPOT 3 Rocket 3.4 19:36:24 35° SSE 19:38:39 76° ENE 19:43:53 10° NNW
STARLINK-81 3.6 19:35:29 10° W 19:39:29 65° N 19:39:44 63° NNE
Cosmos 44 Rocket 3.1 19:34:45 10° NW 19:39:32 90° E 19:40:28 58° SE
Cosmos 372 Rocket 4.5 19:34:58 10° NNW 19:39:50 41° NE 19:39:50 41° NE
Meteor 2-4 Rocket 3.8 19:34:23 10° N 19:40:16 63° ENE 19:42:11 42° SE
STARLINK-1034 3.5 19:36:27 10° WSW 19:40:31 76° S 19:40:31 76° S
Cosmos 468 Rocket 3.9 19:36:04 10° S 19:41:17 64° ESE 19:44:32 23° NE
STARLINK-54 3.7 19:37:21 10° W 19:41:21 63° N 19:41:32 62° N
Cosmos 2219 3.5 19:36:39 10° NNW 19:42:12 46° NE 19:42:43 44° ENE
STARLINK-77 3.7 19:38:49 10° W 19:42:50 64° N 19:42:57 63° N
Cosmos 1869 Rocket 3.4 19:38:49 10° S 19:43:13 76° E 19:47:36 10° NNE
STARLINK-33 4.1 19:40:28 10° WNW 19:43:00 42° NW 19:43:00 42° NW
SJ 16-02 1.5 19:39:32 10° NNW 19:43:58 72° WSW 19:45:09 47° S
STARLINK-25 3.7 19:40:29 10° W 19:44:29 63° N 19:44:32 63° N
USA 186 4.2 19:46:30 14° NNW 19:46:30 14° NNW 19:46:58 10° NNW
ADEOS Rocket 4.1 19:37:56 10° N 19:45:30 59° WNW 19:53:02 10° SW
STARLINK-1068 3.6 19:41:25 10° WSW 19:45:17 75° SSW 19:45:17 75° SSW
Meteor 1-25 Rocket 4.4 19:39:54 10° SSW 19:45:35 71° WNW 19:51:14 10° N
STARLINK-66 4.2 19:42:30 10° WNW 19:44:57 41° NW 19:44:57 41° NW
STARLINK-55 4.2 19:42:42 10° WNW 19:45:08 40° NW 19:45:08 40° NW
STARLINK-71 3.8 19:42:22 10° W 19:46:21 62° N 19:46:21 62° N
STARLINK-1007 4.3 19:44:07 10° W 19:46:24 40° WNW 19:46:24 40° WNW
STARLINK-28 4.3 19:44:22 10° WNW 19:46:43 39° NW 19:46:43 39° NW
STARLINK-79 3.8 19:43:47 10° W 19:47:42 62° NNW 19:47:42 62° NNW
STARLINK-78 3.8 19:45:29 10° W 19:49:19 62° NNW 19:49:19 62° NNW
Cosmos 1898 Rocket 3.8 19:44:24 10° NNW 19:49:33 65° WSW 19:52:08 29° S
Cosmos 1656 Rocket 3.8 19:44:28 10° SW 19:50:00 74° WNW 19:55:39 10° NNE
STARLINK-57 3.9 19:47:14 10° W 19:51:01 60° NNW 19:51:01 60° NNW
STARLINK-49 3.9 19:48:46 10° W 19:52:28 59° NNW 19:52:28 59° NNW
SJ-6B 3.3 19:52:30 51° SW 19:52:55 54° W 19:56:39 10° NNW
STARLINK-27 4.0 19:50:26 10° W 19:54:04 58° NW 19:54:04 58° NW
Cosmos 489 Rocket 4.4 19:48:12 10° SSW 19:54:34 86° ESE 20:00:56 10° NNE
STARLINK-1060 3.9 19:51:22 10° WSW 19:54:52 62° WSW 19:54:52 62° WSW
STARLINK-74 4.0 19:52:06 10° W 19:55:40 56° NW 19:55:40 56° NW
STARLINK-39 4.1 19:53:45 10° W 19:57:15 55° NW 19:57:15 55° NW
Nadezhda 4 Rocket 4.1 19:52:18 10° NNW 19:58:36 78° W 20:03:47 16° S
Cosmos 2150 Rocket 4.4 19:54:07 10° NNW 19:58:50 49° NE 19:58:50 49° NE
STARLINK-31 4.2 19:55:27 10° W 19:58:51 53° NW 19:58:51 53° NW
Cosmos 1464 Rocket 4.3 19:53:53 10° SSW 20:00:14 67° WNW 20:06:37 10° N
STARLINK-1030 4.1 19:56:23 10° WSW 19:59:40 56° WSW 19:59:40 56° WSW
STARLINK-69 4.3 19:57:16 10° W 20:00:36 51° NW 20:00:36 51° NW
STARLINK-21 4.3 19:58:45 10° W 20:02:02 50° NW 20:02:02 50° NW
Cosmos 2369 Rocket 3.7 19:58:28 10° WSW 20:03:39 36° NW 20:08:54 10° NNE
Meteor 1-13 Rocket 4.2 19:58:14 10° N 20:04:08 69° ENE 20:04:16 69° E
STARLINK-45 4.4 20:00:39 10° W 20:03:51 48° NW 20:03:51 48° NW
Cosmos 2263 Rocket 4.2 20:01:44 10° N 20:04:42 14° NNE 20:04:48 14° NNE
Cosmos 2026 Rocket 3.9 19:59:14 10° N 20:05:17 60° ENE 20:05:17 60° ENE
STARLINK-1020 4.4 20:01:20 10° WSW 20:04:25 49° WSW 20:04:25 49° WSW
STARLINK-70 4.5 20:02:13 10° W 20:05:21 47° NW 20:05:21 47° NW
STARLINK-1047 4.4 20:02:14 10° WSW 20:05:23 50° WSW 20:05:23 50° WSW
USA 234 3.3 20:06:31 53° ENE 20:07:55 66° NNE 20:14:24 10° WNW
Cosmos 1763 Rocket 3.7 20:03:11 10° SSW 20:07:25 60° SSW 20:07:25 60° SSW
MetOp-A 4.2 20:11:17 57° SSW 20:12:20 74° WSW 20:17:44 10° NNW
Cosmos 2221 Rocket 4.1 20:07:55 10° NNW 20:11:44 59° NW 20:11:44 59° NW
CZ-2C R/B 4.5 20:09:42 10° NNE 20:11:10 19° NNE 20:11:10 19° NNE
NOSS 3-2 (A) 3.9 20:09:03 10° NW 20:16:18 70° NE 20:17:38 60° E
NOSS 3-2 (C) 4.1 20:10:15 10° NW 20:17:19 56° NE 20:18:24 52° ENE
Terra 4.3 20:22:36 11° NNE 20:22:36 11° NNE 20:22:51 10° NNE
Cosmos 2034 Rocket 4.3 20:14:00 10° SSW 20:20:07 66° WNW 20:26:16 10° N
BREEZE-M DEB (TANK) 3.6 20:08:43 10° W 20:27:23 81° S 20:27:48 76° SE
NOSS 3-1 (A) 4.5 20:25:52 10° W 20:31:27 42° NNW 20:35:03 24° NNE
H-2A R/B 4.0 20:31:20 10° SSW 20:35:51 27° W 20:40:27 10° NW
CENTAUR R/B 3.2 20:33:08 10° NW 20:40:48 62° NE 20:41:17 61° NE
Cosmos 1092 Rocket 4.4 20:35:55 10° NNW 20:42:09 60° W 20:43:31 49° SW
Lacrosse 5 4.4 20:37:32 10° SW 20:37:46 11° SW 20:37:46 11° SW
Cosmos 2297 Rocket 2.8 20:39:51 10° NNW 20:44:06 52° NNW 20:44:06 52° NNW
Lacrosse 5 rocket 3.4 20:42:34 10° WNW 20:44:58 30° NW 20:44:58 30° NW
Resurs 01 Rocket 3.6 20:53:04 27° NW 20:53:04 27° NW 20:55:23 10° NNW
ATLAS 3B R/B 3.3 20:45:09 10° NW 20:50:49 45° NNE 20:50:49 45° NNE
Cosmos 2227 Rocket 3.2 20:58:17 10° NNW 21:01:57 42° NW 21:01:57 42° NW
USA 238 DEB 4.1 21:07:37 10° NW 21:13:47 61° W 21:13:47 61° W
USA 238 4.1 21:07:43 10° NW 21:13:52 61° W 21:13:52 61° W
Cosmos 2263 Rocket 4.4 21:44:50 10° NNW 21:46:30 19° NNW 21:46:30 19° NNW
CENTAUR R/B 4.3 22:23:58 10° NW 22:28:29 35° WNW 22:28:29 35° WNW
